Content
SEND FEEDBACK

Daily
Averages
Monthly
Summary
Greece

KALAMATA, GREECE


Home > Europe > Greece
Elevation: 26 feet     Latitude: 37 04N     Longitude: 022 01E

WEATHER
 
SELECT A DAY
Number of Records: 245,992;   Date Range: 7/1/96 - 7/28/14
 
SHARE

PRINT THIS DATA

[ ← Previous Day ]
WEATHER ALMANAC - MAY 6, 2013
[ Next Day → ]
[ °C ]   °F
Weather ElementAverageHighLow
Temperature77.9 °F87.8 °F (11:20 am)62.6 °F (5:50 am)
Dewpoint57.4 °F62.6 °F (11:50 am)51.8 °F (6:20 am)
Humidity50.9 %88 % (11:50 pm)31 % (11:20 am)
Barometer29.98 in30.01 in (9:20 am)29.92 in (4:50 pm)
Wind Speed4.5 mph11.5 mph (12:20 pm)
Weather ElementAverage
Visibility6.2 mi
Wind DirectionESE (128.1 °)

Weather ElementTotal
Precipitation---
Cooling Degree Days10.2 (Base 65)
Growing Degree Days25.2 (Base 50)
Averaged from 32 records on May 6, 2013
WEATHER CONDITIONS BREAKOUT
WIND DIRECTION BREAKOUT
WEATHER BY HOUR - MAY 6, 2013
[ °C ]   °F
Local TimeTemperatureDewpointHumidityBarometerVisibilityWind DirectionWind SpeedGust SpeedPrecipitationEventsConditions
5:50 AM62.6 °F53.6 °F72 %29.95 in6.2 miCalmPartly Cloudy
6:20 AM62.6 °F51.8 °F68 %29.95 in6.2 miCalmPartly Cloudy
6:50 AM64.4 °F53.6 °F68 %29.95 in6.2 miCalmPartly Cloudy
7:20 AM68.0 °F53.6 °F60 %29.98 in6.2 miCalmPartly Cloudy
7:50 AM69.8 °F55.4 °F60 %29.98 in6.2 miCalmPartly Cloudy
8:20 AM73.4 °F57.2 °F57 %29.98 inNW (320°)4.6 mphClear
8:50 AM75.2 °F59.0 °F57 %29.98 inWest (270°)4.6 mphClear
9:20 AM78.8 °F57.2 °F47 %30.01 in6.2 miSSW (210°)4.6 mphPartly Cloudy
9:50 AM80.6 °F59.0 °F48 %30.01 in6.2 miCalmPartly Cloudy
10:20 AM82.4 °F59.0 °F45 %30.01 in6.2 miSE (130°)4.6 mphPartly Cloudy
10:50 AM86.0 °F53.6 °F33 %30.01 in6.2 miSSW (200°)4.6 mphPartly Cloudy
11:20 AM87.8 °F53.6 °F31 %30.01 in6.2 miSSW (210°)4.6 mphPartly Cloudy
11:50 AM84.2 °F62.6 °F48 %30.01 in6.2 miSouth (180°)4.6 mphPartly Cloudy
12:20 PM84.2 °F57.2 °F40 %30.01 in6.2 miEast (100°)11.5 mphPartly Cloudy
12:50 PM84.2 °F57.2 °F40 %30.01 in6.2 miSouth (180°)5.8 mphPartly Cloudy
1:20 PM78.8 °F57.2 °F47 %30.01 in6.2 miSSW (200°)6.9 mphScattered Clouds
1:50 PM80.6 °F59.0 °F48 %30.01 in6.2 miESE (110°)10.4 mphScattered Clouds
2:20 PM82.4 °F57.2 °F42 %30.01 in6.2 miSE (140°)10.4 mphScattered Clouds
2:50 PM80.6 °F59.0 °F48 %29.98 in6.2 miSSW (200°)4.6 mphScattered Clouds
3:20 PM84.2 °F59.0 °F42 %29.95 in6.2 miWSW (240°)4.6 mphScattered Clouds
3:50 PM86.0 °F55.4 °F35 %29.95 in6.2 miNNW (330°)4.6 mphPartly Cloudy
4:20 PM86.0 °F57.2 °F37 %29.95 in6.2 miSSW (200°)4.6 mphPartly Cloudy
4:50 PM87.8 °F55.4 °F33 %29.92 in6.2 miCalmPartly Cloudy
5:20 PM84.2 °F59.0 °F42 %29.92 in6.2 miSSE (160°)5.8 mphPartly Cloudy
5:50 PM80.6 °F57.2 °F45 %29.95 in6.2 miSouth (180°)6.9 mphPartly Cloudy
6:20 PM78.8 °F57.2 °F47 %29.95 in6.2 miSE (140°)5.8 mphMostly Cloudy
6:50 PM78.8 °F57.2 °F47 %29.98 in6.2 miESE (120°)9.2 mphMostly Cloudy
7:20 PM78.8 °F59.0 °F51 %29.98 in6.2 miSE (130°)11.5 mphScattered Clouds
7:50 PM73.4 °F60.8 °F65 %29.95 in6.2 miSSE (150°)8.1 mphPartly Cloudy
8:20 PM71.6 °F60.8 °F69 %29.95 in6.2 miCalmPartly Cloudy
8:50 PM71.6 °F60.8 °F69 %29.95 in6.2 miCalmPartly Cloudy
11:50 PM64.4 °F60.8 °F88 %29.98 in6.2 miCalmPartly Cloudy
Hourly data recorded from LGKL, located miles away from Kalamata, Greece







STORIES FROM OUR PARTNERS